Dewpoint
55 55 54 54 53 53 53 53 53 53 53 53 53 53 53 52 52 51 51 51 52 52 52 52 51 51 50 49 49 48 48 48 48 48 48 49 49 50 50 50 51 52 53 53 53 52 51 46 41 38 39 40 40 41 41 44 45 44 42 44 45 46 49 53 55 55 55 55 55 55 55 55 55 55 55 55 55 55 55 55 55 55 55 55 55 55 55 55 55 55 55 55 55 55 55 55 55 56 56 56 56 56 55
55 55 54 54 53 53 53 53 53 53 53 53 53 53 52 52 52 51 51 51 51 51 52 52 51 51 50 49 49 48 48 48 48 48 48 48 48 49 49 50 50 51 52 53 52 52 50 45 40 37 39 40 40 41 41 43 44 44 43 44 45 46 50 54 55 55 55 55 55 55 55 55 55 55 55 55 54 54 54 54 54 54 54 54 55 55 55 55 55 55 55 55 55 55 55 55 55 55 56 56 56 55 55
55 55 54 53 53 53 53 53 52 52 52 52 52 52 52 52 52 51 51 50 50 50 51 51 51 51 50 50 49 48 47 47 47 47 47 47 48 48 49 50 50 51 52 52 51 50 50 47 41 37 38 38 40 41 41 43 44 43 43 44 45 46 51 54 55 55 55 55 55 55 55 55 54 54 54 54 54 54 54 54 54 54 54 54 54 54 54 54 54 54 54 55 55 55 55 55 55 55 56 56 56 55 55
55 55 54 53 53 53 53 52 52 52 52 52 52 52 52 52 52 51 51 50 50 50 50 51 51 51 50 50 49 48 47 47 46 46 46 46 46 47 48 49 50 50 51 50 50 48 46 46 41 37 36 37 39 41 41 43 43 42 42 43 44 46 53 54 54 54 55 55 55 54 54 54 54 54 54 54 54 54 54 54 54 54 54 54 54 54 54 54 54 54 54 54 54 54 54 54 54 55 55 56 56 55 55
55 54 54 53 53 53 53 52 52 52 52 51 51 51 51 51 51 51 51 50 50 50 50 50 50 50 50 50 49 48 47 46 46 46 45 45 45 46 46 47 48 49 50 50 49 46 40 41 38 36 35 36 38 40 40 42 42 41 41 42 44 48 53 53 54 54 54 54 54 54 54 54 54 54 53 53 53 53 53 53 53 53 53 53 53 53 54 54 54 54 54 54 54 54 54 54 54 54 54 55 55 55 55
55 54 54 53 53 53 53 52 52 52 51 51 51 51 51 51 51 50 50 50 50 50 50 50 50 50 50 49 49 48 47 46 46 45 44 43 43 44 44 45 46 47 48 49 48 46 40 35 33 33 33 34 36 38 39 40 40 40 41 41 46 50 52 53 53 53 54 54 54 54 53 53 53 53 53 53 53 53 53 53 53 53 53 53 53 53 53 53 53 53 53 53 53 53 53 53 54 54 54 55 55 55 55
55 54 54 53 53 53 53 52 52 51 51 51 51 51 51 50 50 50 50 50 50 49 49 49 49 50 50 49 49 48 47 46 46 45 43 42 42 42 42 43 44 45 46 46 47 45 39 34 32 32 31 32 34 36 38 37 38 40 40 41 47 51 52 52 53 53 53 53 53 53 53 53 53 53 53 52 52 52 52 52 52 52 52 52 52 52 52 53 53 53 53 53 53 53 53 53 53 53 53 54 54 55 55
54 54 53 53 53 53 53 53 52 52 51 51 51 50 50 50 50 50 50 50 50 49 49 48 48 49 49 49 49 48 47 46 46 45 43 42 41 40 40 40 41 42 43 44 45 44 41 35 32 32 30 32 33 35 37 35 36 38 40 43 47 50 51 52 52 52 53 53 53 53 52 52 52 52 52 52 52 52 52 52 52 52 52 52 52 52 52 52 52 52 53 53 52 52 52 52 52 52 52 53 54 54 55
54 54 53 53 53 53 53 53 52 52 51 51 51 50 50 50 50 49 50 50 50 49 49 48 48 48 48 48 48 48 47 47 46 45 44 42 41 40 38 38 38 39 41 41 42 43 41 35 32 30 29 29 31 33 36 34 35 37 38 43 48 50 51 51 52 52 52 52 52 52 52 52 52 52 52 52 52 52 51 51 51 51 51 51 52 52 51 51 52 52 52 52 52 52 52 52 52 52 52 52 53 54 54
54 54 53 53 53 53 53 53 52 52 52 51 51 50 50 50 49 49 49 49 49 49 48 48 47 47 47 47 47 47 47 47 46 45 44 43 41 40 38 37 37 37 37 38 40 41 40 33 30 28 28 27 29 32 34 33 34 37 37 44 49 51 51 51 51 51 52 52 52 52 52 51 51 51 51 51 51 51 51 51 51 51 51 51 51 51 51 51 51 51 51 52 52 52 52 51 51 51 51 51 52 53 53
54 53 53 53 53 53 53 53 52 52 52 51 51 50 50 50 49 49 49 49 49 49 48 48 47 47 46 46 47 47 47 46 46 46 45 44 43 41 40 38 37 36 35 37 38 39 37 32 29 27 26 27 28 30 31 33 34 36 37 45 49 51 51 51 51 51 51 51 51 51 51 51 51 51 51 51 51 51 51 50 50 50 50 50 50 50 51 51 51 51 51 51 51 51 51 51 51 51 51 51 51 52 52
54 53 53 53 53 53 53 53 52 52 52 51 51 50 50 50 49 49 49 49 49 48 48 48 47 46 46 46 46 46 46 46 46 46 45 45 44 42 41 39 38 37 36 37 37 37 34 30 28 26 26 26 27 28 31 32 33 34 38 46 49 50 51 51 51 51 51 51 51 51 51 51 51 50 50 50 50 50 50 50 50 50 50 50 50 50 50 50 50 50 50 50 50 51 51 51 51 51 51 51 51 51 51
54 54 53 53 53 52 52 52 52 52 52 51 51 51 50 50 49 49 49 49 48 48 48 47 47 46 46 46 46 46 46 46 45 45 45 44 44 43 42 41 40 39 38 37 36 34 30 28 27 26 27 27 26 27 31 32 32 34 41 46 49 50 50 50 50 50 50 50 50 50 50 50 50 50 50 50 50 50 50 50 50 50 50 50 50 50 50 50 50 50 50 50 50 50 50 51 51 51 50 50 50 50 50
54 54 53 53 52 52 52 51 52 52 52 51 51 51 50 50 49 49 49 48 48 48 47 47 46 46 46 46 45 45 45 45 44 44 44 44 44 43 42 42 41 41 39 36 32 28 27 26 26 26 27 27 25 25 30 30 30 34 43 46 47 48 49 50 50 50 50 50 50 50 50 50 50 50 50 50 50 50 50 50 50 50 49 50 50 50 50 50 50 50 50 50 50 50 50 50 50 50 50 50 50 50 50
54 54 53 53 52 52 51 51 51 51 51 51 51 51 50 50 50 49 49 49 48 47 47 47 46 46 46 45 45 45 44 44 44 44 43 43 43 43 42 43 42 41 39 32 27 23 24 24 25 26 25 25 24 24 27 28 30 34 44 45 46 47 47 49 49 50 49 49 49 49 49 49 49 49 49 50 50 50 49 49 49 49 49 49 49 49 49 49 49 50 50 49 49 50 50 50 50 50 50 50 50 50 50
54 54 54 53 52 52 51 51 51 51 51 51 51 51 51 50 50 50 49 49 48 47 47 46 46 46 45 45 45 45 44 44 43 43 43 43 42 42 42 43 42 39 35 29 25 22 23 23 25 27 27 25 23 23 26 28 31 36 43 44 45 46 46 47 48 49 49 49 48 48 48 48 48 48 48 49 49 49 49 49 49 49 48 48 49 49 49 49 49 49 49 49 49 49 49 49 50 50 50 50 50 50 50
54 54 54 53 53 52 51 51 51 51 51 51 51 51 51 50 50 50 49 49 48 48 47 46 46 46 45 45 46 45 42 43 42 42 43 43 42 42 42 43 41 36 29 26 23 23 23 23 25 27 26 24 23 22 26 28 31 36 41 42 44 45 46 46 47 48 48 48 47 47 47 47 48 48 48 48 48 48 48 48 48 48 48 48 48 48 48 48 48 49 49 49 49 49 49 49 49 49 49 49 49 49 49
54 54 54 53 53 52 52 51 51 51 51 51 51 51 51 50 50 50 50 49 49 48 47 47 46 46 46 46 45 42 37 36 37 40 43 43 42 42 41 41 37 32 25 23 23 23 23 23 24 26 25 23 22 22 26 27 31 35 38 41 42 44 45 46 46 47 47 47 47 46 46 46 47 47 47 47 47 47 47 48 48 48 48 47 47 47 47 48 48 48 48 48 48 48 48 48 48 48 49 49 49 49 49
55 54 54 53 53 52 52 51 51 51 51 51 51 51 50 50 50 50 50 50 49 49 48 47 47 46 45 46 42 37 32 30 31 34 38 40 41 41 39 36 31 27 23 23 23 23 22 23 24 25 25 23 22 22 26 28 31 34 36 38 41 43 45 45 46 46 46 46 47 46 46 46 46 46 46 46 47 47 47 47 47 47 47 47 47 47 47 47 47 47 47 48 47 47 47 48 48 48 48 48 48 48 48
54 54 53 53 53 52 52 51 51 51 51 51 51 50 50 50 50 50 50 50 50 49 48 48 47 46 45 41 37 32 30 29 29 29 30 32 33 33 31 28 25 23 21 22 22 22 23 23 23 24 24 23 22 22 24 28 32 34 35 37 39 41 44 45 45 45 46 46 46 46 46 46 46 46 46 46 46 46 46 47 47 47 47 47 47 46 46 46 46 47 47 47 47 47 47 47 47 47 47 47 47 47 47
50 51 52 52 52 51 50 50 50 51 51 51 50 48 48 50 51 51 50 49 48 48 48 46 41 38 39 35 32 31 29 29 28 28 28 27 27 26 25 23 22 21 21 22 23 23 25 24 24 24 24 23 22 22 22 27 32 34 35 36 38 40 42 44 45 45 45 45 46 46 46 46 46 46 46 46 46 46 46 46 47 47 47 47 47 46 46 46 46 46 46 46 46 46 46 46 47 47 47 47 47 47 47
48 48 48 47 48 48 46 46 48 49 50 50 48 45 43 45 47 48 48 44 42 42 43 37 32 30 32 32 32 30 28 28 28 28 27 25 24 24 24 23 23 23 23 24 24 25 26 25 24 24 24 22 21 20 20 28 32 34 35 36 37 39 41 43 44 45 45 45 46 46 46 46 46 46 46 46 46 46 46 46 46 46 46 46 47 47 46 46 46 46 46 46 46 46 46 46 46 46 46 46 46 46 46
47 46 46 45 45 44 43 44 45 46 46 49 46 42 41 41 41 42 41 38 37 35 35 30 27 26 27 30 31 30 28 28 28 28 26 24 23 24 24 24 24 23 24 25 25 24 25 25 24 24 23 22 21 20 20 28 32 34 35 36 37 38 40 42 43 45 45 45 46 46 46 46 46 46 46 46 46 46 46 46 46 46 46 46 46 47 47 46 46 46 46 46 46 46 46 46 46 46 46 46 46 46 46
46 46 46 45 43 42 41 43 44 44 44 46 45 41 40 39 38 38 38 36 35 33 32 28 24 21 22 26 28 27 26 28 30 29 26 24 23 23 24 23 23 23 24 24 24 24 25 25 24 23 21 21 20 20 21 28 32 34 35 36 37 38 40 41 43 44 45 46 46 46 46 46 46 46 46 46 46 46 46 46 46 46 46 46 46 47 47 46 46 46 46 46 46 46 46 46 46 46 46 46 46 46 46
46 46 45 44 43 42 41 43 44 43 42 42 42 42 41 38 37 37 37 36 34 32 31 27 22 19 19 22 23 23 23 26 28 27 23 24 23 23 23 22 21 22 23 23 24 24 23 23 22 21 20 20 19 20 21 28 32 34 35 36 37 37 39 41 42 43 45 45 46 46 46 46 46 46 46 46 46 46 46 46 46 46 46 46 46 47 47 47 47 46 46 46 46 46 46 46 46 46 46 46 46 46 46
45 46 45 44 42 41 40 42 43 43 41 40 41 42 41 39 36 35 37 36 34 32 29 23 19 17 18 20 21 21 21 24 24 23 19 21 22 23 22 21 21 21 22 23 23 23 22 21 21 20 19 19 19 19 21 28 32 33 35 36 36 37 38 40 41 42 44 45 45 46 46 46 47 47 47 46 46 47 47 46 46 46 46 47 47 47 47 47 47 47 46 46 46 46 46 46 46 46 46 46 46 46 46
45 46 45 43 42 41 41 41 42 42 41 39 40 41 42 39 36 34 35 33 32 31 28 23 19 18 18 20 20 20 19 23 23 21 19 19 20 21 21 20 19 20 19 22 23 23 22 22 21 20 19 18 18 19 19 27 31 32 34 35 36 37 38 39 40 41 42 44 45 45 46 46 46 47 47 47 47 47 47 47 47 47 47 47 47 47 47 47 47 47 47 47 46 46 46 46 46 46 46 46 46 46 46
45 46 44 42 41 41 41 41 41 41 40 38 38 40 42 41 37 35 34 33 32 32 31 26 22 21 21 22 22 21 20 22 23 23 20 19 19 19 19 19 18 17 17 20 21 21 21 21 19 18 17 17 18 18 19 24 29 32 33 35 36 37 37 38 39 40 42 43 44 45 46 46 46 47 47 47 47 47 47 47 47 47 47 47 47 47 47 47 47 47 47 47 46 46 46 46 46 46 46 46 46 46 46
45 44 42 41 41 41 42 41 41 40 39 37 38 39 40 41 40 37 35 33 32 32 33 29 27 26 26 25 24 23 21 21 21 20 20 21 20 19 19 18 17 17 17 18 18 18 19 19 18 17 16 16 17 18 19 22 27 31 33 34 35 36 37 38 38 40 41 42 44 45 46 46 46 47 47 47 47 47 47 47 48 48 48 48 48 48 48 48 48 48 47 47 47 46 46 47 47 47 46 46 46 46 46
45 44 42 41 42 42 43 41 40 39 37 38 39 40 38 40 40 39 37 35 33 32 33 30 28 26 28 27 25 24 24 23 23 21 20 21 20 19 18 18 17 16 16 16 17 19 19 19 18 17 17 16 16 17 17 19 24 30 32 33 35 36 37 37 38 39 40 42 43 44 45 46 46 47 47 47 47 47 47 48 48 48 48 48 48 48 48 48 48 48 48 47 47 47 47 47 47 47 47 46 46 46 46
45 43 42 42 42 42 42 41 40 39 37 38 40 41 38 38 39 40 39 37 35 34 34 32 30 28 28 28 27 26 26 26 25 23 22 21 20 19 18 17 17 16 16 17 19 20 20 20 19 18 19 17 16 16 16 17 22 27 32 33 34 35 36 37 38 39 40 41 42 43 45 46 46 47 47 47 48 48 48 48 48 49 49 49 48 48 48 48 48 48 48 48 47 47 47 47 47 47 47 47 46 46 46
45 43 42 42 42 42 41 41 41 39 37 37 39 40 38 37 38 40 40 39 37 36 36 35 33 32 30 29 28 26 25 27 26 25 25 24 21 19 18 17 17 16 17 18 18 18 19 19 19 19 18 17 16 16 16 17 18 22 28 32 33 35 36 37 37 38 39 40 41 42 44 45 46 46 47 48 48 48 48 48 49 49 49 49 49 48 48 48 48 48 48 48 48 47 47 47 47 47 47 47 47 46 46
44 43 42 43 43 43 41 41 41 41 38 37 38 39 37 35 36 38 38 38 38 37 37 36 35 33 32 31 29 27 23 24 25 25 25 25 23 21 19 17 17 17 18 18 17 18 19 18 17 15 16 15 15 15 15 16 17 19 23 29 32 33 35 36 37 37 38 39 40 41 42 44 45 46 46 47 48 48 48 49 49 49 49 49 49 49 49 49 48 48 48 48 48 48 47 47 47 47 47 47 47 46 46
44 43 43 43 43 43 42 42 42 41 39 37 37 38 37 35 34 34 35 35 33 32 32 32 32 31 30 30 29 27 23 23 23 24 25 26 25 24 21 19 18 18 18 17 17 17 18 17 16 15 15 14 14 14 15 16 16 17 18 24 28 32 34 35 36 36 37 38 39 40 41 42 43 45 46 46 47 47 48 48 48 49 49 49 49 49 49 49 49 48 48 48 48 48 48 47 47 47 47 47 47 46 46
44 43 43 43 42 42 42 42 42 41 40 38 37 37 37 35 32 31 31 31 28 27 25 25 26 25 24 26 26 25 24 22 21 22 23 24 25 25 23 21 20 20 19 17 17 17 18 17 16 15 14 14 14 14 15 16 17 17 17 23 27 30 33 34 34 35 36 37 38 39 40 41 42 43 44 45 46 46 47 48 48 49 49 49 49 49 49 49 49 48 48 48 48 48 48 48 48 48 47 47 47 47 46
44 43 43 42 42 42 42 42 42 41 41 39 38 37 37 34 32 31 30 30 30 28 25 23 23 24 23 24 25 26 26 23 22 22 22 23 24 24 23 22 21 21 20 19 19 19 18 17 17 16 15 14 14 14 15 17 17 18 18 20 23 26 29 32 32 33 35 36 37 37 38 39 40 41 42 43 44 45 46 47 47 48 49 49 49 49 49 49 49 49 48 48 48 48 48 48 48 48 48 47 47 47 46
44 43 43 42 42 42 42 42 41 41 41 40 38 37 36 35 34 32 32 32 32 32 30 28 28 28 29 28 28 29 29 28 26 25 26 26 26 25 23 23 22 22 21 21 22 21 19 17 17 17 16 16 16 15 15 16 17 17 18 19 20 21 23 26 28 30 32 34 35 36 37 38 39 40 41 42 43 44 45 46 46 47 48 48 49 49 49 49 49 49 49 49 48 48 48 48 48 48 48 47 47 47 47
44 43 42 42 42 42 42 42 41 41 40 39 38 37 37 36 35 34 34 34 34 34 33 32 32 32 33 31 31 32 32 30 29 29 29 29 28 27 26 25 24 23 22 23 22 21 19 18 17 17 17 17 16 16 16 17 17 17 18 19 19 19 19 21 23 24 28 32 33 34 35 36 37 38 39 40 41 42 43 44 45 46 47 47 48 48 49 49 49 49 49 49 49 49 49 49 48 48 48 47 47 47 47
44 43 43 42 42 42 42 42 41 40 38 38 38 37 37 37 36 35 35 35 35 35 34 33 33 32 32 32 31 32 32 31 30 30 30 30 29 28 28 27 25 24 23 23 22 21 19 18 18 17 17 17 16 16 17 17 17 17 18 18 18 18 19 19 20 21 23 26 29 32 34 35 36 37 38 39 40 41 42 43 44 45 46 46 47 48 48 49 49 49 49 49 49 49 49 49 49 48 48 48 47 47 47
43 43 43 43 43 42 42 41 40 39 37 37 37 37 37 37 36 36 35 35 35 35 34 34 34 33 32 32 32 32 32 31 30 30 30 29 29 28 28 28 26 24 23 23 22 21 20 19 18 17 17 17 17 17 17 17 16 16 16 17 17 18 18 19 20 20 20 21 24 28 32 34 35 36 37 38 39 40 41 41 42 43 44 45 46 47 47 48 49 49 49 49 49 49 49 49 49 49 48 48 47 47 47
43 43 43 43 43 43 42 41 39 38 37 37 37 36 36 36 36 36 35 35 35 34 34 33 33 33 33 33 33 32 32 31 30 29 28 28 28 28 28 27 25 24 23 23 22 21 21 20 19 18 17 18 18 18 17 17 16 16 17 17 17 18 19 21 22 21 20 20 22 25 29 32 34 35 36 37 38 39 40 40 41 41 42 43 44 45 46 47 48 48 49 49 49 49 49 49 49 49 49 48 48 47 47
44 43 43 43 43 43 42 40 38 37 36 36 36 36 35 35 35 35 35 35 35 35 34 33 33 33 33 33 33 32 32 31 30 28 28 27 27 27 27 26 24 23 22 23 22 21 21 21 20 19 19 19 18 18 17 17 17 17 18 17 17 18 20 22 23 22 22 22 23 24 28 31 33 34 35 36 37 38 39 39 40 40 41 42 43 44 45 46 47 48 48 49 49 49 49 49 49 49 49 49 48 48 47
45 44 43 43 43 43 42 39 37 37 36 36 36 35 35 34 35 35 35 34 34 34 35 34 33 32 32 33 33 33 32 31 30 28 27 26 26 25 25 24 23 22 22 21 21 20 20 21 21 21 22 20 19 18 18 18 18 18 18 18 18 19 21 23 24 24 26 25 25 25 27 29 32 33 34 35 36 37 38 38 39 39 40 41 42 43 44 45 46 46 47 48 49 49 49 49 49 49 49 49 49 48 48
46 46 44 44 43 43 41 39 37 36 36 35 35 35 34 34 34 33 33 34 34 34 35 34 34 33 32 32 32 32 31 30 29 28 27 27 26 24 23 23 22 21 21 20 19 19 19 20 21 23 23 21 19 19 19 19 19 19 19 19 19 20 23 24 25 27 28 28 28 27 27 28 30 31 33 34 35 36 37 37 38 39 39 40 41 42 43 44 45 46 46 47 48 49 49 49 49 49 49 49 49 49 48
46 46 45 44 44 43 41 39 37 36 35 35 34 34 33 33 33 32 32 32 33 33 33 34 34 33 32 32 31 31 30 30 29 28 26 27 25 23 22 21 21 20 20 19 19 19 19 20 21 22 21 20 19 19 19 19 20 20 20 20 20 21 25 25 26 27 27 28 28 27 27 28 28 28 29 31 32 33 35 36 37 38 39 40 41 41 42 43 44 45 46 46 47 48 48 49 49 49 49 49 49 49 48
46 46 45 45 44 43 41 39 37 37 35 35 34 33 33 32 32 32 32 32 32 32 32 33 33 33 32 31 30 30 29 29 28 27 26 25 24 23 23 22 21 20 20 19 19 20 20 21 21 20 19 19 19 19 19 21 22 22 21 20 20 21 26 26 27 27 26 27 27 26 27 26 26 27 27 26 26 28 30 33 36 37 38 39 40 41 41 42 42 43 45 46 47 47 48 48 49 49 49 49 49 49 48
45 45 45 45 44 43 42 39 38 37 36 35 34 34 33 33 32 32 32 31 31 31 32 32 32 31 30 31 30 29 28 28 27 26 25 24 23 23 24 23 23 22 21 21 20 21 21 22 21 20 20 20 20 20 20 21 22 21 20 20 21 23 26 26 26 26 26 25 25 25 27 26 26 25 24 23 23 23 26 30 32 35 36 37 38 40 41 41 41 42 43 45 46 47 48 48 49 49 49 49 49 49 49
45 45 45 44 44 43 42 40 38 37 37 36 35 35 34 34 34 33 33 32 31 31 31 32 31 30 29 28 28 28 27 26 25 24 23 23 22 23 23 23 23 22 22 22 22 22 23 22 21 21 21 20 20 20 19 20 20 20 19 20 20 21 23 25 26 25 25 23 23 24 27 26 25 24 22 22 22 22 23 25 28 31 33 35 37 38 39 39 40 41 42 43 45 46 47 48 48 49 49 49 49 49 49
45 45 45 44 44 43 42 41 39 38 37 37 37 37 36 36 35 35 34 33 32 31 31 31 31 31 29 28 27 26 25 25 24 23 22 21 22 23 24 24 23 23 22 23 23 23 24 23 22 21 21 21 20 20 19 19 19 19 19 19 19 19 20 21 23 24 23 22 22 24 26 25 25 23 22 22 22 22 23 22 23 24 29 32 35 36 37 37 38 39 40 41 43 45 46 47 48 48 49 49 49 49 48
44 44 44 44 43 43 42 41 40 39 38 37 37 37 37 37 36 36 35 33 32 32 31 29 30 30 29 28 27 26 24 24 23 23 21 21 21 22 23 24 24 24 23 23 23 23 23 23 22 22 22 21 20 20 20 19 19 19 19 19 18 18 18 19 20 22 22 23 24 24 25 25 24 24 23 23 22 22 23 22 21 22 26 28 31 32 34 36 37 38 39 40 41 42 44 46 46 48 48 49 49 49 48
44 44 44 43 43 42 42 41 40 39 38 38 38 37 37 37 37 36 34 33 32 31 30 29 29 29 29 28 27 27 25 24 23 23 22 22 23 23 23 23 23 23 23 25 25 25 24 23 22 22 22 21 21 20 20 20 20 19 19 19 19 19 18 18 19 20 22 23 24 24 23 24 24 24 23 23 23 22 23 22 22 22 23 23 24 26 28 31 34 37 37 38 39 40 41 43 45 46 47 48 48 48 48
44 43 43 43 42 42 42 41 41 40 39 39 38 37 36 36 35 34 33 32 32 31 30 29 29 29 29 28 28 28 27 25 23 23 23 23 23 22 20 21 21 22 22 23 24 25 25 23 23 23 22 21 20 20 20 20 20 20 20 20 19 19 19 19 19 19 21 23 23 24 23 25 26 25 24 24 23 23 23 23 22 22 23 22 23 23 26 28 31 34 36 37 37 38 40 41 43 45 46 47 48 48 48
43 43 43 42 42 42 42 41 40 39 39 38 37 37 36 35 34 33 33 32 32 31 30 30 30 29 29 28 28 28 28 26 25 24 24 24 23 21 20 21 21 21 21 20 21 23 25 23 23 22 21 21 20 19 19 19 20 20 21 20 20 20 20 19 19 19 20 21 23 23 24 25 26 26 25 23 23 22 22 23 23 22 21 23 23 23 24 27 29 32 33 35 37 37 38 40 41 43 46 46 47 47 48
43 43 42 42 42 41 41 41 40 39 38 38 37 37 36 35 34 33 32 32 31 31 30 30 30 30 28 28 28 28 28 27 26 24 24 24 24 23 23 23 22 21 19 19 19 20 22 20 19 19 20 20 20 19 20 19 19 19 20 20 20 20 21 21 20 20 19 20 21 23 23 24 25 26 25 23 23 22 23 23 23 23 22 22 22 22 23 25 28 31 32 34 35 36 37 38 40 41 43 45 46 47 47
42 42 42 41 41 41 41 40 40 39 38 37 37 36 36 35 34 33 32 32 31 31 30 29 29 29 28 28 28 28 27 28 27 25 24 24 24 24 24 24 24 23 21 19 19 20 21 19 18 19 20 19 19 19 19 19 19 20 21 21 20 19 20 20 20 20 19 19 20 21 22 22 23 23 24 24 23 23 23 22 22 22 22 22 23 24 25 27 28 29 30 32 33 35 36 37 39 40 42 44 45 46 47
41 41 41 41 41 40 40 40 39 38 37 37 36 35 35 34 34 33 32 32 31 31 30 29 29 28 28 28 28 28 27 27 27 26 24 24 25 25 25 24 24 23 23 22 22 23 23 19 19 21 23 19 18 18 19 19 19 20 21 21 21 20 19 19 20 20 20 20 20 21 21 21 22 22 23 23 23 22 22 22 22 22 23 23 24 25 25 27 27 27 28 28 31 33 35 37 38 39 41 42 44 45 46
39 39 39 39 39 39 39 39 38 38 37 36 35 35 34 34 34 33 33 32 31 31 30 30 29 28 28 28 28 28 27 27 27 27 25 24 25 27 27 26 25 24 24 24 24 24 23 21 21 22 24 22 21 20 20 20 20 20 20 20 20 20 20 20 20 20 20 21 21 21 21 22 21 21 21 22 22 22 23 23 23 23 23 23 23 23 24 25 26 26 26 27 28 30 34 36 38 39 41 41 43 44 45
38 38 38 38 38 38 38 38 37 37 36 36 35 34 34 33 33 32 32 32 31 31 31 30 29 29 28 28 28 28 27 27 27 27 27 25 25 26 28 26 26 26 26 26 26 25 24 23 22 22 23 23 23 22 21 19 19 19 19 19 20 20 20 20 20 20 20 20 21 21 21 21 21 21 21 21 22 23 23 23 23 23 23 23 23 23 23 24 26 27 26 27 28 29 32 35 37 39 40 41 42 43 44
36 36 37 37 37 37 37 37 37 36 36 36 35 34 33 32 32 32 32 31 31 31 31 30 29 29 29 29 28 27 27 27 27 27 26 25 25 25 27 26 25 26 27 26 26 25 24 23 23 23 23 22 23 23 22 20 19 19 19 19 19 20 20 20 20 20 21 21 21 21 21 21 21 22 21 21 21 22 22 23 23 23 23 23 22 23 23 26 27 28 29 30 31 31 32 34 36 38 40 41 42 43 44
35 35 35 36 36 36 36 35 35 35 35 35 34 33 32 32 32 32 32 31 31 31 31 30 29 29 29 29 28 27 27 27 27 27 26 25 24 24 24 23 23 23 24 24 25 25 25 23 23 23 23 22 22 22 23 23 21 20 19 19 19 19 19 19 20 20 21 21 21 21 21 21 21 21 21 21 21 21 21 22 22 22 22 23 23 23 23 24 25 26 28 30 32 32 33 34 36 37 39 41 41 43 44
33 34 34 34 34 34 34 34 34 34 34 34 34 33 32 32 32 32 31 31 31 31 31 30 30 29 29 29 28 28 28 27 27 27 27 26 25 25 25 24 23 23 23 23 23 23 23 23 23 23 23 22 21 21 20 22 23 23 22 21 19 19 19 19 20 20 20 20 21 21 21 21 21 21 21 21 21 21 21 22 22 22 22 23 23 23 23 23 23 23 24 27 30 32 33 34 36 37 39 40 41 42 43